sat.trackr.live / text

‹ back to catalog

STARLINK-1209

NORAD 45206 · 2020-012AE

PAYLOAD ACTIVE UNKNOWN

§ Identity

Operator
Country
US
Launch date
2020-02-17
Launch site
AFETR
Launch vehicle
Mass (kg)
RCS (m²)

Purposes: comms

External: N2YO · Heavens-Above · Gunter

§ Orbital elements

Epoch: 2026-09-20T06:00:02.000160Z

Period
90.77 min
Inclination
53.0274°
Eccentricity
0.0003269
Mean motion
15.86404871 rev/d
Perigee alt
310.2 km
Apogee alt
314.6 km
Semi-major
6,690.5 km
B*
3.9448e-4
RAAN
93.4041°
Arg perigee
171.4219°
Mean anomaly
31.2672°
Rev number
600

§ Raw data

STARLINK-12091 45206U 20012AE  26263.25002315  .00101680  00000+0  39448-3 0  99952 45206  53.0274  93.4041 0003269 171.4219  31.2672 15.86404871  6007

JSON: /api/v1/satellites/45206 · /tle

For live sub-satellite position, see the globe view (requires WebGL).

§ Visibility from observer

Set your observer location to see the next 7 days of passes ≥ 10°. The values pass through the URL so the page stays shareable.

No JS? Fill the form by hand. The geolocation button needs JavaScript.